Total_Precipitation_Accumulation
0.46 0.70 0.94 0.87 0.82 0.88 0.90 0.94 0.97 0.87 0.66 0.66 0.62 0.52 0.48 0.48 0.48 0.45 0.40 0.32 0.28 0.24 0.19 0.19 0.23 0.25 0.24 0.23 0.26 0.32 0.36 0.44 0.53 0.61 0.75 0.96 1.24 1.35 1.44 1.40 1.22 1.16 1.28 1.52
0.55 0.62 0.56 0.51 0.59 0.76 0.86 1.00 1.00 0.88 0.61 0.56 0.53 0.44 0.39 0.40 0.44 0.39 0.37 0.33 0.24 0.18 0.13 0.11 0.13 0.15 0.16 0.17 0.18 0.24 0.32 0.42 0.51 0.60 0.77 0.94 1.08 1.08 1.26 1.41 1.39 1.30 1.29 1.44
0.53 0.49 0.40 0.45 0.57 0.76 0.82 0.83 0.84 0.83 0.64 0.52 0.47 0.47 0.34 0.32 0.36 0.32 0.30 0.29 0.25 0.19 0.13 0.11 0.11 0.11 0.11 0.12 0.13 0.17 0.24 0.35 0.48 0.64 0.87 1.09 1.27 1.36 1.42 1.35 1.43 1.44 1.37 1.41
0.51 0.42 0.38 0.47 0.54 0.60 0.72 0.50 0.48 0.55 0.66 0.66 0.54 0.61 0.37 0.32 0.38 0.37 0.32 0.28 0.26 0.21 0.15 0.12 0.10 0.11 0.11 0.11 0.10 0.14 0.23 0.38 0.59 0.80 1.06 1.31 1.51 1.55 1.44 1.48 1.51 1.39 1.34 1.31
0.45 0.38 0.37 0.44 0.41 0.40 0.47 0.38 0.36 0.43 0.54 0.51 0.39 0.47 0.38 0.34 0.45 0.43 0.37 0.32 0.26 0.22 0.19 0.17 0.15 0.17 0.18 0.17 0.19 0.26 0.46 0.71 0.96 1.17 1.43 1.72 1.72 1.61 1.51 1.51 1.48 1.42 1.43 1.40
0.38 0.31 0.34 0.33 0.31 0.29 0.33 0.36 0.39 0.42 0.50 0.50 0.32 0.37 0.42 0.36 0.40 0.43 0.41 0.34 0.27 0.22 0.26 0.31 0.34 0.40 0.45 0.48 0.62 0.82 1.09 1.27 1.36 1.49 1.64 1.76 1.73 1.74 1.68 1.50 1.40 1.40 1.44 1.49
0.35 0.31 0.25 0.22 0.28 0.27 0.27 0.41 0.62 0.66 0.67 0.50 0.27 0.42 0.49 0.38 0.32 0.32 0.33 0.29 0.23 0.27 0.36 0.48 0.62 0.75 0.86 0.99 1.13 1.26 1.44 1.59 1.54 1.51 1.56 1.59 1.60 1.59 1.57 1.51 1.41 1.36 1.37 1.38
0.35 0.35 0.22 0.17 0.21 0.23 0.24 0.35 0.66 0.77 0.63 0.45 0.37 0.58 0.57 0.44 0.33 0.25 0.19 0.19 0.28 0.41 0.54 0.65 0.73 0.84 1.01 1.15 1.21 1.22 1.33 1.43 1.40 1.38 1.35 1.32 1.37 1.40 1.35 1.28 1.26 1.29 1.36 1.34
0.23 0.23 0.12 0.11 0.12 0.14 0.20 0.24 0.30 0.47 0.38 0.38 0.47 0.69 0.60 0.39 0.33 0.27 0.23 0.27 0.42 0.61 0.81 0.96 1.06 1.18 1.23 1.27 1.32 1.25 1.24 1.30 1.31 1.25 1.16 1.14 1.19 1.24 1.25 1.19 1.20 1.19 1.18 1.11
0.13 0.15 0.09 0.07 0.09 0.11 0.19 0.27 0.35 0.56 0.65 0.66 0.65 0.72 0.62 0.49 0.44 0.47 0.53 0.64 0.69 0.80 1.05 1.34 1.59 1.76 1.59 1.33 1.22 1.19 1.12 1.13 1.23 1.20 1.12 1.07 1.14 1.14 1.12 1.15 1.12 1.11 1.11 1.03
0.09 0.13 0.09 0.07 0.11 0.15 0.21 0.33 0.42 0.57 0.68 0.88 1.03 1.06 0.86 0.87 0.88 0.96 1.07 1.11 1.12 1.21 1.20 1.35 1.55 1.73 1.63 1.32 1.10 1.11 1.13 1.11 1.10 1.09 1.09 1.08 1.05 0.94 0.92 0.97 0.97 0.96 0.96 1.01
0.05 0.11 0.10 0.07 0.12 0.19 0.31 0.43 0.58 0.81 0.74 0.78 1.00 1.13 0.96 0.95 0.97 1.06 1.24 1.31 1.30 1.21 1.11 1.09 1.15 1.21 1.24 1.10 0.92 0.88 1.03 1.10 1.06 1.02 1.03 1.02 0.92 0.86 0.82 0.80 0.77 0.69 0.66 0.69
0.05 0.15 0.24 0.23 0.32 0.39 0.56 0.63 0.52 0.51 0.58 0.68 0.91 0.89 0.64 0.58 0.74 0.90 1.05 1.13 1.06 1.01 1.08 1.05 0.97 0.90 0.93 0.90 0.83 0.80 0.93 1.08 1.13 1.10 0.95 0.84 0.80 0.76 0.74 0.65 0.61 0.57 0.52 0.52
0.04 0.11 0.21 0.34 0.38 0.44 0.65 0.74 0.57 0.48 0.55 0.56 0.60 0.53 0.37 0.43 0.60 0.66 0.69 0.70 0.71 0.75 0.78 0.72 0.67 0.62 0.62 0.65 0.69 0.75 0.86 0.95 1.08 1.20 1.09 0.94 0.83 0.75 0.70 0.62 0.58 0.54 0.51 0.54
0.02 0.03 0.06 0.10 0.12 0.19 0.37 0.49 0.40 0.29 0.26 0.34 0.35 0.35 0.38 0.46 0.56 0.54 0.48 0.43 0.41 0.42 0.39 0.38 0.38 0.36 0.35 0.35 0.37 0.46 0.59 0.75 0.94 1.17 1.17 1.02 0.94 0.86 0.72 0.66 0.64 0.61 0.64 0.61
0.02 0.02 0.03 0.04 0.05 0.09 0.18 0.22 0.17 0.10 0.13 0.24 0.30 0.36 0.41 0.47 0.54 0.51 0.43 0.35 0.28 0.26 0.26 0.26 0.24 0.22 0.17 0.16 0.18 0.20 0.29 0.46 0.64 0.81 0.90 0.87 0.78 0.67 0.63 0.62 0.60 0.56 0.55 0.51
0.02 0.03 0.05 0.04 0.04 0.06 0.13 0.13 0.13 0.16 0.15 0.16 0.26 0.38 0.46 0.58 0.76 0.67 0.50 0.41 0.28 0.21 0.20 0.19 0.20 0.20 0.18 0.17 0.16 0.17 0.21 0.27 0.38 0.51 0.62 0.62 0.56 0.49 0.45 0.49 0.49 0.46 0.41 0.42
0.02 0.06 0.10 0.09 0.11 0.22 0.25 0.19 0.27 0.34 0.26 0.22 0.29 0.37 0.50 0.83 1.03 0.66 0.43 0.38 0.32 0.21 0.18 0.18 0.18 0.16 0.15 0.14 0.13 0.14 0.16 0.19 0.21 0.26 0.31 0.32 0.33 0.33 0.33 0.35 0.35 0.34 0.33 0.31
0.02 0.06 0.11 0.13 0.17 0.41 0.36 0.19 0.31 0.36 0.31 0.24 0.32 0.37 0.40 0.46 0.41 0.25 0.15 0.16 0.18 0.13 0.10 0.09 0.08 0.07 0.05 0.05 0.05 0.06 0.06 0.08 0.08 0.09 0.11 0.13 0.16 0.19 0.22 0.22 0.24 0.31 0.34 0.35
0.01 0.04 0.09 0.09 0.12 0.26 0.27 0.10 0.17 0.26 0.31 0.13 0.14 0.16 0.11 0.07 0.08 0.11 0.10 0.07 0.05 0.03 0.02 0.02 0.02 0.02 0.01 0.01 0.01 0.01 0.01 0.02 0.03 0.02 0.03 0.04 0.05 0.06 0.09 0.13 0.16 0.21 0.25 0.32
0.01 0.02 0.04 0.04 0.06 0.08 0.05 0.05 0.11 0.25 0.28 0.07 0.04 0.03 0.01 0.01 0.01 0.05 0.10 0.06 0.03 0.01 0.00 0.00 0.00 0.00 0.00 0.00 0.00 0.00 0.01 0.01 0.02 0.03 0.04 0.04 0.04 0.03 0.04 0.05 0.06 0.10 0.14 0.17
0.01 0.02 0.01 0.02 0.03 0.04 0.02 0.05 0.11 0.11 0.05 0.02 0.01 0.01 0.00 0.00 0.00 0.02 0.05 0.03 0.02 0.01 0.00 0.00 0.01 0.00 0.00 0.00 0.00 0.00 0.00 0.01 0.01 0.02 0.04 0.04 0.03 0.03 0.03 0.03 0.04 0.04 0.06 0.10
0.01 0.01 0.01 0.02 0.02 0.02 0.02 0.03 0.03 0.03 0.02 0.00 0.00 0.00 0.01 0.00 0.00 0.00 0.01 0.02 0.01 0.00 0.00 0.00 0.01 0.01 0.00 0.01 0.01 0.01 0.01 0.01 0.01 0.02 0.04 0.04 0.04 0.03 0.02 0.03 0.03 0.03 0.04 0.07
0.00 0.01 0.01 0.01 0.01 0.01 0.01 0.01 0.01 0.01 0.01 0.00 0.00 0.01 0.01 0.00 0.00 0.00 0.00 0.01 0.01 0.00 0.00 0.00 0.00 0.01 0.01 0.01 0.01 0.01 0.01 0.02 0.02 0.02 0.02 0.03 0.04 0.04 0.04 0.04 0.04 0.04 0.04 0.07
0.01 0.01 0.01 0.01 0.01 0.00 0.01 0.01 0.00 0.01 0.01 0.00 0.00 0.00 0.00 0.00 0.00 0.00 0.00 0.01 0.01 0.00 0.00 0.00 0.00 0.01 0.01 0.01 0.01 0.01 0.01 0.01 0.01 0.01 0.02 0.03 0.04 0.05 0.04 0.03 0.04 0.05 0.05 0.07
0.01 0.01 0.01 0.01 0.01 0.00 0.00 0.00 0.00 0.01 0.00 0.00 0.00 0.00 0.00 0.00 0.00 0.00 0.00 0.00 0.00 0.00 0.00 0.00 0.00 0.00 0.01 0.01 0.01 0.01 0.01 0.01 0.01 0.01 0.01 0.02 0.03 0.03 0.04 0.05 0.04 0.04 0.04 0.05